Imperial Beach, CA

10:54 PM PDT on April 23, 2017 (GMT -0700)
Imperial Beach Naval Outlying Field

Weather History for KNRS - February, 2014

Change the Weather History Date:

Thursday, February 6, 2014

  Actual Average Record
Temperature  
Mean Temperature 56 °F -  
Max Temperature 62 °F 61 °F 79 °F (2006)
Min Temperature 50 °F 48 °F 42 °F (2008)
Degree Days  
Heating Degree Days 9    
Growing Degree Days 6 (Base 50)    
Moisture  
Dew Point 49 °F    
Average Humidity 79    
Maximum Humidity 97    
Minimum Humidity 62    
Precipitation  
Precipitation 0.04 in - - ()
Sea Level Pressure  
Sea Level Pressure 30.06 in    
Wind  
Wind Speed 7 mph (SSE)    
Max Wind Speed 15 mph    
Max Gust Speed 21 mph    
Visibility 9 miles    
Events Rain    
Averages and records for this station are not official NWS values.
T = Trace of Precipitation, MM = Missing Value Source: NWS Daily Summary

Daily Weather History Graph

Daily Weather History Graph

Search for Another Location

Airport or City:

Trip Planner

Search our weather history database for the weather conditions in past years. The results will help you decide how hot, cold, wet, or windy it might be!

Date:

Astronomy

Feb. 06, 2014 Rise Set
Actual Time 6:39 AM PST 5:26 PM PST
Civil Twilight 6:13 AM PST 5:51 PM PST
Nautical Twilight 5:44 AM PST 6:21 PM PST
Astronomical Twilight 5:15 AM PST 6:49 PM PST
Moon 11:02 AM PST (2/6) No Moon Set
Length of Visible Light 11h 38m
Length of Day
10h 47m
Waxing Crescent, 50% of the Moon is Illuminated
Feb 6
Waxing Crescent
Feb 14
Full
Feb 22
Last Quarter
Mar 1
New
Mar 8
First Quarter

Hourly Weather History & Observations

Time (PST) Temp. Dew Point Humidity Pressure Visibility Wind Dir Wind Speed Gust Speed Precip Events Conditions
12:56 AM 50.0 °F 46.0 °F 86% 30.07 in 9.0 mi East 8.1 mph - N/A   Clear
1:56 AM 51.1 °F 46.0 °F 83% 30.08 in 8.0 mi East 5.8 mph - N/A   Partly Cloudy
2:22 AM 51.1 °F 46.0 °F 83% 30.07 in 9.0 mi East 6.9 mph - N/A   Mostly Cloudy
2:35 AM 51.1 °F 46.0 °F 83% 30.08 in 8.0 mi East 4.6 mph - N/A   Scattered Clouds
2:56 AM 51.1 °F 46.0 °F 83% 30.06 in 8.0 mi East 6.9 mph - N/A   Mostly Cloudy
3:13 AM 51.1 °F 46.0 °F 83% 30.06 in 8.0 mi East 5.8 mph - N/A   Mostly Cloudy
3:26 AM 51.1 °F 46.0 °F 83% 30.05 in 8.0 mi East 8.1 mph - N/A   Mostly Cloudy
3:33 AM 52.0 °F 46.0 °F 80% 30.05 in 9.0 mi East 6.9 mph - N/A   Mostly Cloudy
3:40 AM 52.0 °F 46.0 °F 80% 30.06 in 9.0 mi ESE 6.9 mph - N/A   Overcast
3:56 AM 52.0 °F 46.0 °F 80% 30.06 in 9.0 mi East 4.6 mph - N/A   Overcast
4:34 AM 52.0 °F 46.0 °F 80% 30.07 in 9.0 mi East 5.8 mph - N/A   Mostly Cloudy
4:56 AM 52.0 °F 46.0 °F 80% 30.06 in 9.0 mi East 5.8 mph - N/A   Partly Cloudy
5:56 AM 52.0 °F 46.0 °F 80% 30.07 in 9.0 mi ESE 5.8 mph - N/A   Clear
6:56 AM 52.0 °F 45.0 °F 77% 30.09 in 8.0 mi East 4.6 mph - N/A   Mostly Cloudy
7:56 AM 55.0 °F 46.0 °F 72% 30.08 in 8.0 mi ESE 5.8 mph - N/A   Mostly Cloudy
8:56 AM 57.9 °F 46.9 °F 67% 30.09 in 8.0 mi ESE 3.5 mph - N/A   Mostly Cloudy
9:56 AM 60.1 °F 50.0 °F 69% 30.11 in 8.0 mi SSW 9.2 mph - N/A   Mostly Cloudy
10:56 AM 61.0 °F 48.9 °F 64% 30.10 in 8.0 mi SSW 9.2 mph - N/A   Mostly Cloudy
11:56 AM 61.0 °F 50.0 °F 67% 30.09 in 8.0 mi WSW 11.5 mph - N/A   Mostly Cloudy
12:56 PM 62.1 °F 48.9 °F 62% 30.05 in 8.0 mi WSW 11.5 mph - N/A   Mostly Cloudy
1:56 PM 60.1 °F 48.0 °F 64% 30.03 in 10.0 mi WSW 13.8 mph - N/A   Mostly Cloudy
2:11 PM 61.0 °F 48.0 °F 62% 30.02 in 7.0 mi WSW 11.5 mph 20.7 mph 0.00 in Rain Light Rain
2:15 PM 61.0 °F 48.0 °F 62% 30.03 in 10.0 mi WSW 12.7 mph - 0.00 in   Mostly Cloudy
2:56 PM 61.0 °F 50.0 °F 67% 30.03 in 10.0 mi West 13.8 mph - 0.00 in   Mostly Cloudy
3:56 PM 59.0 °F 48.9 °F 69% 30.04 in 10.0 mi WNW 10.4 mph - N/A   Mostly Cloudy
4:26 PM 59.0 °F 48.0 °F 67% 30.04 in 10.0 mi West 9.2 mph - 0.00 in Rain Light Rain
4:56 PM 57.9 °F 50.0 °F 75% 30.05 in 10.0 mi WSW 10.4 mph - 0.00 in   Mostly Cloudy
5:09 PM 57.0 °F 52.0 °F 83% 30.05 in 10.0 mi West 15.0 mph - 0.00 in Rain Light Rain
5:39 PM 55.9 °F 52.0 °F 87% 30.05 in 10.0 mi WSW 6.9 mph - 0.00 in   Overcast
5:56 PM 55.9 °F 51.1 °F 84% 30.05 in 10.0 mi SW 6.9 mph - 0.00 in Rain Light Rain
6:56 PM 54.0 °F 52.0 °F 93% 30.06 in 6.0 mi SSE 3.5 mph - 0.04 in Rain Light Rain
7:48 PM 53.1 °F 52.0 °F 96% 30.06 in 10.0 mi South 4.6 mph - N/A   Overcast
7:56 PM 54.0 °F 51.1 °F 90% 30.06 in 10.0 mi South 4.6 mph - N/A Rain Light Rain
8:56 PM 53.1 °F 52.0 °F 96% 30.06 in 10.0 mi SE 4.6 mph - N/A Rain Light Rain
9:56 PM 54.0 °F 52.0 °F 93% 30.06 in 10.0 mi South 4.6 mph - N/A Rain Light Rain
10:56 PM 54.0 °F 52.0 °F 93% 30.06 in 8.0 mi SSE 4.6 mph - N/A Rain Light Rain
11:03 PM 54.0 °F 52.0 °F 93% 30.06 in 10.0 mi SSE 6.9 mph - N/A Rain Light Rain
11:56 PM 54.0 °F 53.1 °F 97% 30.07 in 7.0 mi SSE 5.8 mph - N/A Rain Light Rain